Home > Weather > Fort Simpson > Past weeks

Flag for Canada Weather for the Past 2 Weeks in Fort Simpson, Northwest Territories, Canada

Now
-4 °F

Light snow. Overcast.


Feels Like: -16 °F
Forecast: -4 / 1 °F
Wind: 6 mph from Southeast

Location: Fort Simpson

Current Time: Feb 11, 2016 at 1:05:52 PM

Latest Report: Feb 11, 2016 at 12:00 PM


Visibility: 3 mi

Pressure: 30.59 "Hg

Humidity: 71%

Dew point: -11 °F

Location of Fort SimpsonLocation

Historic Weather in Fort Simpson — Graph

°F

Fort Simpson Temperature Yesterday

Maximum temperature yesterday: 7 °F (at 12:00 PM)
Minimum temperature yesterday: 0 °F (at 11:00 PM)
Average temperature yesterday: 4 °F

High & Low Weather Summary for the Past Weeks

 TemperatureHumidityPressure
High10 °F (Jan 27, 10:00 PM)85% (Jan 27, 6:00 PM)30.59 "Hg (Jan 27, 6:00 PM)
Low-17 °F (Feb 8, 10:00 AM)64% (Feb 7, 12:00 PM)29.18 "Hg (Jan 28, 3:00 PM)
Average-1 °F76%30.03 "Hg
* Reported Jan 27 12:00 Noon — Feb 11 12:00 Noon, Fort Simpson, Weather by CustomWeather, © 2016

Note: Actual official high and low records may vary slightly from our data, if they occured in-between our weather recording intervals... More about our weather records

Advertising

Fort Simpson Weather History for the Previous 24 Hours

 ConditionsComfort  
Time TempWeatherWind HumidityBarometerVisibility
12:00 PM
Thu, Feb 11
-4 °FLight snow. Overcast.6 mph71%30.59 "Hg3 mi
11:00 AM-4 °FLight snow. Overcast.7 mph71%30.59 "Hg2 mi
10:00 AM-4 °FLight snow. Overcast.8 mph71%30.58 "Hg1 mi
9:00 AM-4 °FLight snow. Overcast.6 mph71%30.58 "Hg2 mi
8:00 AM-4 °FLight snow. Overcast.6 mph71%30.57 "Hg5 mi
7:00 AM-4 °FLight snow. Overcast.6 mph71%30.55 "Hg6 mi
6:00 AM-4 °FLight snow. Overcast.6 mph71%30.54 "Hg3 mi
5:00 AM-4 °FLight snow. Overcast.6 mph71%30.53 "Hg4 mi
4:00 AM-4 °FLight snow. Overcast.7 mph71%30.53 "Hg4 mi
3:00 AM-4 °FLight snow. Mostly cloudy.5 mph71%30.51 "Hg12 mi
2:00 AM-4 °FLight snow. Mostly cloudy.5 mph71%30.50 "Hg15 mi
1:00 AM-4 °FLight snow. Mostly cloudy.6 mph71%30.50 "Hg15 mi
12:00 AM-2 °FLight snow. Partly cloudy.6 mph71%30.50 "Hg15 mi
11:00 PM
Wed, Feb 10
0 °FLight snow. Partly cloudy.6 mph65%30.51 "Hg15 mi
10:00 PM1 °FLight snow. Mostly cloudy.6 mph65%30.50 "Hg15 mi
9:00 PM3 °FLight snow. Mostly cloudy.5 mph66%30.50 "Hg15 mi
8:00 PM3 °FLight snow. Passing clouds.6 mph72%30.50 "Hg15 mi
7:00 PM5 °FLight snow. Overcast.5 mph78%30.50 "Hg15 mi
6:00 PM5 °FLight snow. Overcast.6 mph78%30.51 "Hg15 mi
5:00 PM7 °FLight snow. More clouds than sun.8 mph78%30.52 "Hg12 mi
4:00 PM7 °FLight snow. Mostly cloudy.6 mph78%30.52 "Hg10 mi
3:00 PM7 °FLight snow. Overcast.6 mph78%30.53 "Hg15 mi
2:00 PM7 °FLight snow. Overcast.3 mph78%30.54 "Hg15 mi
1:00 PM7 °FLight snow. Overcast.7 mph78%30.55 "Hg15 mi
Weather by CustomWeather, © 2016

See weather overviewHow to use our weather pages